Location: Fontevrault
(47.1823°N, 0.0493°E)
Time: 13:35:41
(UTC+00:00)

Cosmos 1455 - Visible Passes

Search period start: 22 October 2021 00:00
Search period end: 01 November 2021 00:00
Orbit: 496 x 520 km, 82.5° (Epoch: 22 October)

Date Brightness Start Highest point End Pass type
(mag) Time Alt. Az. Time Alt. Az. Time Alt. Az.
23 Oct 3.8 05:48:41 10° N 05:52:13 38° ENE 05:55:43 10° SE visible
24 Oct 4.2 05:31:33 10° N 05:34:53 30° ENE 05:38:12 10° SE visible
25 Oct 4.6 05:14:27 10° NNE 05:17:32 24° ENE 05:20:38 10° SE visible
25 Oct 4.2 19:05:39 10° S 19:06:46 19° S 19:06:46 19° S visible
26 Oct 5.0 04:57:25 10° NNE 05:00:11 19° ENE 05:02:56 10° ESE visible
26 Oct 2.0 18:48:24 10° S 18:51:54 69° SE 18:51:54 69° SE visible
27 Oct 5.2 04:40:28 10° NNE 04:42:48 16° ENE 04:45:08 10° ESE visible
27 Oct 2.1 18:31:12 10° S 18:34:55 56° E 18:37:11 22° NNE visible
27 Oct 5.4 20:09:06 10° W 20:10:51 13° WNW 20:12:12 11° NW visible
28 Oct 5.4 04:23:42 10° NE 04:25:25 13° ENE 04:27:07 10° E visible
28 Oct 2.2 05:57:41 10° NNW 06:01:20 54° W 06:04:58 10° S visible
28 Oct 2.4 18:14:04 10° SSE 18:17:40 43° E 18:21:15 10° NNE visible
28 Oct 5.1 19:51:06 10° WSW 19:53:28 16° WNW 19:55:49 10° NNW visible
29 Oct 5.7 04:07:45 10° ENE 04:08:00 10° ENE 04:08:15 10° ENE visible
29 Oct 2.0 05:40:21 10° NNW 05:44:05 71° W 05:47:47 10° S visible
29 Oct 2.8 17:57:00 10° SSE 18:00:25 33° E 18:03:50 10° NNE visible
29 Oct 4.8 19:33:17 10° WSW 19:36:05 19° WNW 19:38:52 10° NNW visible
30 Oct 2.1 05:23:02 10° N 05:26:47 88° ENE 05:30:31 10° S visible
30 Oct 3.1 17:40:01 10° SSE 17:43:11 26° E 17:46:22 10° NNE visible
30 Oct 4.5 19:15:36 10° SW 19:18:43 24° WNW 19:21:49 10° NNW visible
31 Oct 2.4 05:05:46 10° N 05:09:30 67° E 05:13:12 10° SSE visible
31 Oct 3.4 17:23:06 10° SE 17:25:58 21° E 17:28:50 10° NE visible
31 Oct 4.1 18:58:00 10° SW 19:01:21 30° WNW 19:04:43 10° N visible
